Tracking 18852 objects as of 24-Nov-2017
HD Live streaming from Space Station
objects crossing your sky now

COSMOS 1130

Track COSMOS 1130 now!
10-day predictions
COSMOS 1130 is classified as:


NORAD ID: 11538
Int'l Code: 1979-084A
Perigee: 1,404.6 km
Apogee: 1,486.8 km
Inclination: 74.0 °
Period: 114.6 minutes
Semi major axis: 7816 km
RCS: 0.7035 m2 (medium)
Launch date: September 25, 1979
Source: Commonwealth of Independent States (former USSR) (CIS)
Launch site: PLESETSK MISSILE AND SPACE COMPLEX (PKMTR)
aabbcc
Your satellite tracking list
Your tracking list is empty




NASA's NSSDC Master Catalog

Two Line Element Set (TLE):
1 11538U 79084A   17327.40612714 -.00000015  00000-0  92070-5 0  9991
2 11538  74.0238 306.1780 0052556 162.9532 355.0401 12.56219873750239
Source of the keplerian elements: AFSPC